EW1613 Weather Reports


time (UTC)temp
F
wind
direction
speed
knots
gust
knots
rain 1hr
in
rain 24hr
in
rain mn
in
humidity
%
barometer
mb
20260507195436 64 43 0.0 3.5 0.00 0.00 0.00 79 1014.9
20260507194954 64 44 0.9 2.6 0.00 0.00 0.00 79 1014.9
20260507194457 65 63 1.7 2.6 0.00 0.00 0.00 78 1014.7
20260507193953 65 111 0.0 2.6 0.00 0.00 0.00 78 1014.6
20260507193449 65 110 0.9 5.2 0.00 0.00 0.00 78 1014.6
20260507193005 65 107 0.9 5.2 0.00 0.00 0.00 79 1014.5
20260507192434 65 105 1.7 3.5 0.00 0.00 0.00 79 1014.5
20260507192011 65 83 1.7 3.5 0.00 0.00 0.00 78 1014.4
20260507191445 65 96 1.7 3.5 0.00 0.00 0.00 78 1014.3
20260507190938 65 74 0.9 3.5 0.00 0.00 0.00 78 1014.1
20260507190514 65 85 0.9 3.5 0.00 0.00 0.00 77 1014.1
20260507185941 65 85 0.0 5.2 0.00 0.00 0.00 76 1014.0
20260507185438 65 82 2.6 5.2 0.00 0.00 0.00 76 1013.9
20260507184949 66 87 1.7 4.3 0.00 0.00 0.00 76 1013.9
20260507184446 66 83 0.9 5.2 0.00 0.00 0.00 75 1013.9
20260507183959 66 98 0.9 6.1 0.00 0.00 0.00 75 1013.8
20260507183451 66 87 1.7 7.0 0.00 0.00 0.00 74 1013.7
20260507182949 66 71 2.6 7.0 0.00 0.00 0.00 74 1013.7
20260507182459 66 82 2.6 7.8 0.00 0.00 0.00 73 1013.7
20260507181953 67 63 2.6 7.8 0.00 0.00 0.00 73 1013.7
20260507181444 67 79 1.7 7.0 0.00 0.00 0.00 73 1013.6
20260507181001 67 69 2.6 7.0 0.00 0.00 0.00 73 1013.5
20260507180451 67 55 1.7 6.1 0.00 0.00 0.00 72 1013.4
20260507175948 67 86 1.7 7.0 0.00 0.00 0.00 71 1013.3
20260507175459 68 72 2.6 7.0 0.00 0.00 0.00 71 1013.3
20260507174935 68 75 4.3 7.8 0.00 0.00 0.00 70 1013.1
20260507174450 68 83 3.5 8.7 0.00 0.00 0.00 69 1013.0
20260507173940 69 82 3.5 8.7 0.00 0.00 0.00 68 1013.0
20260507173458 69 52 2.6 7.0 0.00 0.00 0.00 67 1012.9
20260507172953 69 59 2.6 7.8 0.00 0.00 0.00 66 1012.9
20260507172443 70 66 2.6 8.7 0.00 0.00 0.00 65 1012.8
20260507171939 70 69 4.3 9.6 0.00 0.00 0.00 63 1012.7
20260507171448 70 49 4.3 9.6 0.00 0.00 0.00 58 1012.7
20260507170944 71 53 5.2 8.7 0.00 0.00 0.00 57 1012.7
20260507170458 72 16 3.5 8.7 0.00 0.00 0.00 57 1012.6
20260507165947 73 21 1.7 8.7 0.00 0.00 0.00 54 1012.6
20260507165437 74 336 1.7 5.2 0.00 0.00 0.00 50 1012.6
20260507164953 74 255 0.0 0.9 0.00 0.00 0.00 47 1012.5
20260507164509 75 255 0.0 2.6 0.00 0.00 0.00 47 1012.6
20260507163944 75 255 0.9 2.6 0.00 0.00 0.00 48 1012.6
20260507163434 74 269 0.9 2.6 0.00 0.00 0.00 49 1012.5
20260507162948 74 259 0.9 2.6 0.00 0.00 0.00 49 1012.6
20260507162438 74 324 0.0 3.5 0.00 0.00 0.00 49 1012.6
20260507161935 73 318 0.9 2.6 0.00 0.00 0.00 50 1012.6
20260507161513 73 329 0.9 1.7 0.00 0.00 0.00 52 1012.5
20260507160941 72 50 0.0 1.7 0.00 0.00 0.00 52 1012.6
20260507160436 72 51 0.9 3.5 0.00 0.00 0.00 53 1012.5
20260507155941 73 24 0.9 4.3 0.00 0.00 0.00 52 1012.6
20260507155436 73 15 0.9 4.3 0.00 0.00 0.00 52 1012.6
20260507155011 73 315 0.9 3.5 0.00 0.00 0.00 52 1012.6
20260507154438 73 325 0.9 5.2 0.00 0.00 0.00 51 1012.6
20260507153935 73 302 2.6 5.2 0.00 0.00 0.00 52 1012.5
20260507153452 74 312 0.9 4.3 0.00 0.00 0.00 52 1012.5
20260507152941 74 323 0.9 5.2 0.00 0.00 0.00 53 1012.4
20260507152439 73 322 1.7 5.2 0.00 0.00 0.00 54 1012.4
20260507151950 73 101 0.0 0.9 0.00 0.00 0.00 54 1012.4
20260507151446 73 109 0.0 4.3 0.00 0.00 0.00 55 1012.3
20260507151005 72 109 0.9 4.3 0.00 0.00 0.00 56 1012.3
20260507150447 72 316 0.0 4.3 0.00 0.00 0.00 56 1012.3
20260507145954 72 306 0.9 5.2 0.00 0.00 0.00 56 1012.3
20260507145450 72 29 1.7 7.8 0.00 0.00 0.00 57 1012.4
20260507144941 72 55 3.5 7.8 0.00 0.00 0.00 56 1012.4
20260507144439 73 343 1.7 5.2 0.00 0.00 0.00 55 1012.5
20260507143944 73 317 2.6 7.8 0.00 0.00 0.00 53 1012.4
20260507143442 73 252 2.6 9.6 0.00 0.00 0.00 53 1012.4
20260507142934 73 321 6.1 9.6 0.00 0.00 0.00 53 1012.5
20260507142451 74 295 2.6 8.7 0.00 0.00 0.00 53 1012.5
20260507141948 75 271 3.5 12.2 0.00 0.00 0.00 51 1012.4
20260507141439 75 226 6.1 12.2 0.00 0.00 0.00 47 1012.4
20260507140957 76 254 4.3 7.8 0.00 0.00 0.00 45 1012.4
20260507140451 75 321 1.7 8.7 0.00 0.00 0.00 44 1012.4
20260507135939 75 239 6.1 8.7 0.00 0.00 0.00 44 1012.5
20260507135436 75 249 0.9 10.4 0.00 0.04 0.00 43 1012.4
20260507134947 75 250 4.3 13.0 0.00 0.04 0.00 45 1012.5
20260507134504 75 235 9.6 13.0 0.00 0.04 0.00 45 1012.6
20260507133957 75 241 2.6 8.7 0.00 0.04 0.00 48 1012.6
20260507133512 75 254 4.3 12.2 0.00 0.04 0.00 47 1012.5
20260507132942 75 223 7.0 12.2 0.00 0.04 0.00 48 1012.5
20260507132438 75 238 2.6 6.1 0.00 0.04 0.00 48 1012.6
20260507132011 75 265 2.6 9.6 0.00 0.04 0.00 48 1012.6
20260507131508 74 230 4.3 11.3 0.00 0.04 0.00 48 1012.6
20260507130935 74 240 4.3 13.0 0.00 0.04 0.00 48 1012.6
20260507130452 74 200 5.2 13.0 0.00 0.04 0.00 49 1012.6
20260507130007 74 220 7.0 12.2 0.00 0.04 0.00 46 1012.7
20260507125435 74 210 7.0 13.9 0.00 0.16 0.00 50 1012.6
20260507125011 74 201 4.3 13.9 0.00 0.16 0.00 50 1012.6
20260507124446 74 244 7.0 13.9 0.00 0.16 0.00 50 1012.7
20260507123934 74 230 6.1 10.4 0.00 0.16 0.00 51 1012.8
20260507123451 73 258 2.6 8.7 0.00 0.16 0.00 51 1012.8
20260507122940 72 280 3.5 8.7 0.00 0.16 0.00 55 1012.7
20260507122455 73 249 6.1 11.3 0.00 0.16 0.00 54 1012.8
20260507121951 73 233 1.7 12.2 0.00 0.16 0.00 53 1012.7
20260507121440 73 221 7.8 13.0 0.00 0.16 0.00 54 1012.8
20260507120938 73 242 4.3 13.0 0.00 0.16 0.00 54 1012.8
20260507120455 73 225 5.2 12.2 0.00 0.16 0.00 53 1012.8
20260507115944 73 235 3.5 13.0 0.00 0.16 0.00 54 1012.8
20260507115436 73 325 3.5 13.0 0.00 0.16 0.00 54 1012.9
20260507114951 73 216 2.6 10.4 0.00 0.16 0.00 54 1012.9
20260507114448 73 219 6.1 9.6 0.00 0.16 0.00 54 1012.9
20260507113939 73 238 3.5 9.6 0.00 0.16 0.00 55 1012.9
20260507113434 72 228 6.1 9.6 0.00 0.16 0.00 53 1013.0
20260507112944 72 225 4.3 10.4 0.00 0.16 0.00 54 1013.0
20260507112442 73 242 6.1 11.3 0.00 0.16 0.00 55 1013.1
20260507111939 72 209 5.2 11.3 0.00 0.16 0.00 55 1013.1
20260507111448 72 227 3.5 12.2 0.00 0.16 0.00 54 1013.1
20260507111006 72 221 4.3 12.2 0.00 0.16 0.00 55 1013.2
20260507110438 71 264 7.0 12.2 0.00 0.16 0.00 54 1013.2
20260507105954 72 243 6.1 12.2 0.00 0.16 0.00 55 1013.2
20260507105444 72 250 5.2 12.2 0.00 0.16 0.00 55 1013.3
20260507104939 72 249 3.5 10.4 0.00 0.16 0.00 56 1013.3
20260507104436 72 232 5.2 10.4 0.00 0.16 0.00 56 1013.4
20260507103947 72 182 4.3 7.0 0.00 0.16 0.00 55 1013.4
20260507103442 71 218 2.6 7.8 0.00 0.16 0.00 59 1013.5
20260507102958 71 217 2.6 9.6 0.00 0.16 0.00 57 1013.6
20260507102448 71 213 2.6 10.4 0.00 0.16 0.00 56 1013.7
20260507101939 71 226 6.1 10.4 0.00 0.16 0.00 58 1013.7
20260507101517 71 243 0.9 7.8 0.00 0.16 0.00 60 1013.8
20260507100946 71 252 4.3 8.7 0.00 0.16 0.00 59 1013.9
20260507100437 70 181 2.6 8.7 0.00 0.16 0.00 60 1013.9
20260507095933 71 243 2.6 7.0 0.00 0.16 0.00 60 1013.9
20260507095449 70 207 0.9 7.8 0.00 0.16 0.00 60 1013.9
20260507094944 70 263 3.5 7.8 0.00 0.16 0.00 59 1013.9
20260507094519 70 227 2.6 7.8 0.00 0.16 0.00 60 1013.8
20260507093950 70 254 3.5 7.8 0.00 0.16 0.00 60 1013.8
20260507093446 70 125 0.9 4.3 0.00 0.16 0.00 61 1013.7
20260507092936 69 203 0.9 5.2 0.00 0.16 0.00 63 1013.7
20260507092453 69 213 1.7 7.8 0.00 0.16 0.00 62 1013.7
20260507091944 69 233 2.6 7.8 0.00 0.16 0.00 63 1013.7
20260507091439 69 263 1.7 8.7 0.00 0.16 0.00 62 1013.7
20260507090954 70 180 3.5 8.7 0.00 0.16 0.00 61 1013.8
20260507090444 70 225 0.9 5.2 0.00 0.16 0.00 62 1013.8
20260507090002 70 211 3.5 5.2 0.00 0.16 0.00 63 1013.8
20260507085457 69 219 0.0 7.0 0.00 0.16 0.00 64 1013.7
20260507085013 69 220 2.6 7.0 0.00 0.16 0.00 63 1013.8
20260507084449 69 234 0.9 4.3 0.00 0.16 0.00 64 1013.7
20260507083937 69 239 0.9 4.3 0.00 0.16 0.00 67 1013.7
20260507083449 69 240 0.0 2.6 0.00 0.16 0.00 68 1013.7
20260507082939 68 327 0.0 3.5 0.00 0.16 0.00 71 1013.7
20260507082436 67 278 0.9 4.3 0.00 0.16 0.00 70 1013.7
20260507081945 68 308 2.6 4.3 0.00 0.16 0.00 69 1013.7
20260507081441 68 283 0.9 4.3 0.00 0.16 0.00 70 1013.7
20260507080959 68 240 0.9 3.5 0.00 0.16 0.00 71 1013.7
20260507080447 67 113 0.0 2.6 0.00 0.16 0.00 74 1013.7
20260507075938 66 115 0.0 2.6 0.00 0.16 0.00 75 1013.7
20260507075434 66 180 0.9 1.7 0.00 0.16 0.00 77 1013.7
20260507075011 65 180 0.0 1.7 0.00 0.16 0.00 78 1013.7
20260507074447 65 219 0.0 0.0 0.00 0.16 0.00 79 1013.7
20260507073934 65 295 0.0 0.0 0.00 0.16 0.00 78 1013.7
20260507073451 65 295 0.0 0.0 0.00 0.16 0.00 79 1013.7
20260507072946 65 309 0.0 0.0 0.00 0.16 0.00 79 1013.6
20260507072436 65 311 0.0 0.0 0.00 0.16 0.00 79 1013.6
20260507071952 65 311 0.0 0.0 0.00 0.16 0.00 80 1013.6
20260507071508 64 5 0.0 0.0 0.00 0.16 0.00 81 1013.6
20260507070935 64 11 0.0 0.0 0.00 0.16 0.00 81 1013.5
20260507070449 64 14 0.0 0.0 0.00 0.16 0.00 82 1013.4
20260507065945 63 28 0.0 0.0 0.00 0.16 0.00 83 1013.4
20260507065452 63 28 0.0 0.0 0.00 0.16 0.00 84 1013.3
20260507064948 62 28 0.0 0.0 0.00 0.16 0.00 84 1013.4
20260507064438 61 28 0.0 0.0 0.00 0.16 0.00 85 1013.4
20260507063955 61 27 0.0 0.0 0.00 0.16 0.00 86 1013.3
20260507063445 60 304 0.0 0.0 0.00 0.16 0.00 87 1013.2
20260507063002 60 319 0.0 0.9 0.00 0.16 0.00 87 1013.2
20260507062451 59 323 0.0 1.7 0.00 0.16 0.00 87 1013.3
20260507061948 59 323 0.9 3.5 0.00 0.16 0.00 88 1013.3
20260507061504 59 321 0.0 3.5 0.00 0.16 0.00 88 1013.2
20260507060933 58 325 1.7 3.5 0.00 0.16 0.00 90 1013.3
20260507060450 58 321 0.9 2.6 0.00 0.16 0.00 92 1013.3
20260507055941 58 318 0.9 2.6 0.00 0.16 0.00 93 1013.2
20260507055437 57 309 0.0 3.5 0.00 0.16 0.00 93 1013.2
20260507054953 57 302 0.0 3.5 0.00 0.16 0.00 93 1013.1
20260507054503 57 305 1.7 3.5 0.00 0.16 0.00 94 1013.1
20260507053939 57 306 0.9 2.6 0.00 0.16 0.00 94 1013.1
20260507053455 57 241 0.0 1.7 0.00 0.16 0.00 94 1013.0
20260507052944 56 240 0.0 0.9 0.00 0.16 0.00 95 1013.0
20260507052441 56 237 0.0 0.9 0.00 0.16 0.00 95 1012.9
20260507052000 56 323 0.0 0.9 0.00 0.16 0.00 95 1012.9
20260507051456 56 323 0.0 0.9 0.00 0.16 0.00 95 1012.8
20260507050943 55 323 0.0 0.0 0.00 0.16 0.00 95 1012.8
20260507050438 55 323 0.0 0.0 0.00 0.16 0.00 94 1012.7
20260507050009 55 323 0.0 0.0 0.00 0.16 0.00 95 1012.7
20260507045438 55 323 0.0 0.0 0.00 0.24 0.00 94 1012.6
20260507045001 55 323 0.0 0.0 0.00 0.24 0.00 94 1012.6
20260507044450 55 323 0.0 0.0 0.00 0.24 0.00 94 1012.6
20260507043938 55 323 0.0 0.9 0.00 0.24 0.00 94 1012.6
20260507043454 55 323 0.0 0.9 0.00 0.24 0.00 94 1012.5
20260507042949 55 323 0.0 0.0 0.00 0.24 0.00 94 1012.4
20260507042438 55 323 0.0 0.0 0.00 0.24 0.00 94 1012.4
20260507041934 55 323 0.0 0.0 0.00 0.24 0.00 94 1012.3
20260507041451 55 323 0.0 0.0 0.00 0.24 0.00 94 1012.3
20260507041006 55 323 0.0 0.0 0.00 0.24 0.00 94 1012.2
20260507040500 55 323 0.0 0.0 0.00 0.24 0.00 94 1012.2
20260507040016 55 323 0.0 0.0 0.00 0.24 0.00 94 1012.2
20260507035443 55 323 0.0 0.0 0.00 0.28 0.00 94 1012.1
20260507034959 55 323 0.0 0.0 0.00 0.28 0.00 94 1012.1
20260507034449 55 323 0.0 0.0 0.00 0.28 0.00 94 1012.0
20260507033946 55 323 0.0 0.0 0.00 0.28 0.00 94 1012.0
20260507033437 55 323 0.0 0.0 0.00 0.28 0.00 94 1012.0
20260507032935 55 323 0.0 0.0 0.00 0.28 0.00 94 1012.0
20260507032444 55 323 0.0 0.0 0.00 0.28 0.00 94 1012.0
20260507031940 55 323 0.0 0.0 0.00 0.28 0.00 94 1011.9
20260507031438 55 323 0.0 0.0 0.00 0.28 0.00 94 1011.9
20260507031011 55 323 0.0 0.0 0.00 0.28 0.00 94 1011.9
20260507030459 55 323 0.0 0.0 0.00 0.28 0.00 94 1011.9
20260507025935 55 323 0.0 0.0 0.00 0.28 0.00 94 1011.9
20260507025451 56 323 0.0 0.0 0.00 0.28 0.00 94 1011.9
20260507024941 56 323 0.0 0.9 0.00 0.28 0.00 94 1011.9
20260507024437 56 323 0.0 0.9 0.00 0.28 0.00 94 1011.9
20260507023955 56 323 0.0 0.0 0.00 0.28 0.00 94 1011.9
20260507023450 56 323 0.0 0.0 0.00 0.28 0.00 94 1011.9
20260507022939 56 323 0.0 0.0 0.00 0.28 0.00 94 1012.0
20260507022456 55 323 0.0 0.0 0.00 0.28 0.00 93 1011.9
20260507021947 56 323 0.0 0.0 0.00 0.28 0.00 93 1012.0
20260507021443 56 323 0.0 0.0 0.00 0.28 0.00 93 1012.0
20260507020934 56 323 0.0 0.0 0.00 0.28 0.00 93 1012.0
20260507020510 56 323 0.0 0.0 0.00 0.28 0.00 93 1011.9
20260507015947 56 323 0.0 0.0 0.00 0.28 0.00 93 1012.0
20260507015437 56 323 0.0 0.0 0.00 0.28 0.00 93 1011.8
20260507014934 56 323 0.0 0.0 0.00 0.28 0.00 93 1011.8
20260507014442 56 323 0.0 0.0 0.00 0.28 0.00 93 1011.8
20260507013940 56 323 0.0 0.0 0.00 0.28 0.00 93 1011.8
20260507013455 56 323 0.0 0.0 0.00 0.28 0.00 93 1011.8
20260507012945 56 323 0.0 0.0 0.00 0.28 0.00 93 1011.7
20260507012502 56 323 0.0 0.0 0.00 0.28 0.00 93 1011.8
20260507011952 56 323 0.0 0.0 0.00 0.28 0.00 93 1011.7
20260507011440 56 323 0.0 0.0 0.00 0.28 0.00 93 1011.7
20260507010938 56 323 0.0 0.0 0.00 0.28 0.00 93 1011.8
20260507010456 56 323 0.0 0.0 0.00 0.28 0.00 93 1011.7
20260507010007 56 323 0.0 0.0 0.00 0.28 0.00 93 1011.7
20260507005441 57 323 0.0 0.0 0.00 0.28 0.00 93 1011.7
20260507004958 57 323 0.0 0.0 0.00 0.28 0.00 93 1011.7
20260507004447 57 323 0.0 1.7 0.00 0.28 0.00 93 1011.7
20260507003944 57 323 0.9 1.7 0.00 0.28 0.00 93 1011.7
20260507003435 57 322 0.0 1.7 0.00 0.28 0.00 93 1011.7
20260507002952 57 321 0.0 1.7 0.00 0.28 0.00 93 1011.7
20260507002447 57 320 0.9 1.7 0.00 0.28 0.00 93 1011.8
20260507001939 57 319 0.9 1.7 0.00 0.28 0.00 93 1011.8
20260507001455 57 319 0.0 1.7 0.00 0.28 0.00 93 1011.8
20260507000948 57 319 0.0 1.7 0.00 0.28 0.00 93 1011.8
20260507000437 57 319 0.9 1.7 0.00 0.28 0.00 93 1011.8
20260506235933 57 321 0.0 0.9 0.00 0.28 0.00 93 1011.7
20260506235450 57 321 0.0 0.0 0.00 0.28 0.00 93 1011.7
20260506234938 57 321 0.0 0.0 0.00 0.28 0.00 93 1011.8
20260506234435 57 321 0.0 0.0 0.00 0.28 0.00 93 1011.8
20260506234010 57 321 0.0 0.0 0.00 0.28 0.00 93 1011.7
20260506233455 57 321 0.0 0.0 0.00 0.28 0.00 93 1011.7
20260506232949 57 321 0.0 0.0 0.00 0.28 0.00 93 1011.7
20260506232443 57 321 0.0 0.0 0.00 0.28 0.00 93 1011.8
20260506231940 57 321 0.0 0.0 0.00 0.28 0.00 93 1011.8
20260506231450 58 321 0.0 1.7 0.00 0.28 0.00 93 1011.8
20260506231005 58 321 0.0 1.7 0.00 0.28 0.00 93 1011.8
20260506230501 58 321 0.0 2.6 0.00 0.28 0.00 92 1011.8
20260506225956 58 321 0.9 2.6 0.00 0.28 0.00 93 1011.7
20260506225512 58 319 1.7 2.6 0.00 0.28 0.00 93 1011.7
20260506224940 58 319 0.9 2.6 0.00 0.28 0.00 93 1011.7
20260506224456 58 315 0.9 1.7 0.00 0.28 0.00 93 1011.7
20260506223952 59 315 0.0 1.7 0.00 0.28 0.00 93 1011.7
20260506223443 59 315 0.9 1.7 0.00 0.28 0.00 93 1011.8
20260506222959 59 315 0.0 0.0 0.00 0.28 0.00 93 1011.8
20260506222452 59 315 0.0 0.0 0.00 0.28 0.00 93 1011.8
20260506221941 59 315 0.0 0.0 0.00 0.28 0.00 93 1011.7
20260506221458 59 315 0.0 0.0 0.00 0.28 0.00 93 1011.7
20260506220947 59 315 0.0 0.0 0.00 0.28 0.00 93 1011.7
20260506220438 59 315 0.0 0.0 0.00 0.28 0.00 93 1011.7
20260506215955 59 315 0.0 1.7 0.00 0.28 0.06 93 1011.7
20260506215449 59 315 0.0 1.7 0.00 0.28 0.06 93 1011.6
20260506214959 59 315 0.9 1.7 0.00 0.28 0.06 93 1011.7
20260506214456 59 315 0.0 1.7 0.00 0.28 0.06 93 1011.7
20260506213948 59 315 0.0 1.7 0.00 0.28 0.06 92 1011.7
20260506213444 59 315 0.9 2.6 0.00 0.28 0.06 92 1011.6
20260506212934 59 339 0.9 2.6 0.00 0.28 0.06 92 1011.6
20260506212451 59 355 0.0 0.9 0.00 0.28 0.06 92 1011.6
20260506211947 59 355 0.0 0.9 0.00 0.28 0.06 92 1011.6
20260506211436 59 355 0.0 0.0 0.00 0.28 0.06 92 1011.6
20260506210950 59 355 0.0 0.0 0.00 0.28 0.06 92 1011.6
20260506210441 59 355 0.0 0.0 0.00 0.28 0.06 92 1011.5
20260506205939 59 355 0.0 0.0 0.00 0.28 0.06 92 1011.6
20260506205516 60 355 0.0 0.0 0.00 0.28 0.06 92 1011.4
20260506204944 60 355 0.0 0.0 0.00 0.28 0.06 92 1011.4
20260506204501 60 355 0.0 0.0 0.00 0.28 0.06 92 1011.4
20260506203947 60 355 0.0 0.0 0.00 0.28 0.06 92 1011.3
20260506203438 60 355 0.0 0.0 0.00 0.28 0.06 92 1011.4
20260506202952 60 355 0.0 0.9 0.00 0.28 0.06 92 1011.4
20260506202506 60 355 0.0 1.7 0.00 0.28 0.06 92 1011.3
20260506201935 60 355 0.9 1.7 0.00 0.28 0.06 92 1011.3
20260506201447 60 355 0.0 0.9 0.00 0.28 0.06 91 1011.3
20260506200940 60 355 0.0 2.6 0.00 0.28 0.06 91 1011.3
20260506200453 60 355 0.0 2.6 0.00 0.28 0.06 91 1011.2
20260506195941 61 355 0.0 3.5 0.00 0.28 0.06 91 1011.1